sat.trackr.live / text

‹ back to catalog

STARLINK-5768

NORAD 57145 · 2023-090AW

PAYLOAD ACTIVE UNKNOWN

§ Identity

Operator
Country
US
Launch date
2023-06-23
Launch site
AFETR
Launch vehicle
Mass (kg)
RCS (m²)

Purposes: comms

External: N2YO · Heavens-Above · Gunter

§ Orbital elements

Epoch: 2026-09-20T10:09:26.788608Z

Period
94.27 min
Inclination
43.0020°
Eccentricity
0.0001598
Mean motion
15.27575915 rev/d
Perigee alt
482.0 km
Apogee alt
484.2 km
Semi-major
6,861.2 km
B*
2.2216e-5
RAAN
243.7326°
Arg perigee
285.8659°
Mean anomaly
74.2016°
Rev number
18,013

§ Raw data

STARLINK-57681 57145U 23090AW  26263.42322672  .00000349  00000+0  22216-4 0  99952 57145  43.0020 243.7326 0001598 285.8659  74.2016 15.27575915180136

JSON: /api/v1/satellites/57145 · /tle

For live sub-satellite position, see the globe view (requires WebGL).

§ Visibility from observer

Set your observer location to see the next 7 days of passes ≥ 10°. The values pass through the URL so the page stays shareable.

No JS? Fill the form by hand. The geolocation button needs JavaScript.